Simultaneous Nadir Overpasses (SNOs) Predictions

Prediction of SNOs between AQUA and GOES-15 Satellite Orbit:

Table of predicted SNOs for the next 14.0 days since TLE Epoch: 9/15/2017
Index Date Time (AQUA) AQUA Lat,Lon GOES-15 Lat,Lon Distance(km) Time Diff (sec)
1 09/15/2017 22:28:32 0.10,-133.33 -0.31,-135.24 217.92 80
2 09/16/2017 10:49:48 0.99,-138.49 0.30,-135.29 363.49 80
3 09/18/2017 10:37:38 0.35,-135.54 0.30,-135.33 23.73 80
4 09/20/2017 10:25:28 -0.30,-132.59 0.30,-135.37 315.96 80
5 09/20/2017 22:46:51 -0.84,-137.77 -0.29,-135.33 278.57 80
6 09/22/2017 22:34:42 -0.19,-134.83 -0.29,-135.36 60.94 80
7 09/24/2017 22:22:32 0.47,-131.88 -0.29,-135.39 399.94 80
8 09/25/2017 10:43:47 0.61,-137.04 0.28,-135.45 180.55 80
9 09/27/2017 10:31:36 0.01,-134.08 0.28,-135.47 157.44 80
10 09/27/2017 22:53:01 -1.08,-139.28 -0.26,-135.42 439.23 80
11 09/29/2017 10:19:26 -0.66,-131.14 0.27,-135.49 494.77 80




NCC Satellite Simultaneous Nadir Overpasses (SNOs) Prediction Service
